Temperature
15 15 15 15 15 15 15 15 15 15 16 16 16 16 15 15 15 14 14 14 14 14 15 15 15 15 15 15 15 15 15 15 15 15 15 15 15 15
15 15 15 15 15 15 15 14 14 14 15 15 15 15 15 15 14 14 14 14 14 14 14 14 15 15 15 15 15 15 15 15 15 15 15 15 15 15
15 15 15 15 15 15 14 14 14 14 14 15 15 15 15 15 14 14 14 14 14 14 14 14 14 14 14 14 14 14 14 15 15 15 15 15 15 15
16 15 15 15 15 15 15 14 14 14 14 14 14 14 14 14 14 14 14 13 13 13 14 14 14 14 14 14 14 14 14 14 14 14 14 15 15 15
16 16 16 15 15 15 15 15 15 14 14 14 14 14 14 14 14 14 13 13 13 13 13 14 14 14 14 14 14 14 14 14 14 14 14 14 14 14
16 16 16 16 16 15 15 15 15 14 14 14 14 14 14 14 14 14 13 13 13 13 13 13 13 13 13 13 13 14 14 14 14 14 14 14 14 14
16 16 16 16 15 15 15 15 14 14 14 14 14 14 14 14 14 14 14 13 13 13 13 13 13 13 13 13 13 13 13 13 13 13 13 13 13 13
16 16 15 15 15 15 15 15 14 14 14 14 14 14 14 14 14 14 14 13 13 13 13 13 13 13 13 13 13 13 13 13 13 13 13 13 13 13
15 15 15 14 14 15 15 15 14 14 14 14 14 14 14 14 14 13 13 13 13 13 13 13 13 13 13 13 13 13 13 13 13 13 12 12 12 13
14 14 14 14 14 14 14 14 14 14 14 14 14 14 14 14 14 13 13 13 13 13 13 12 13 13 13 12 12 12 12 12 12 12 12 12 12 12
13 13 13 13 13 13 13 13 13 13 13 13 13 13 13 13 13 13 12 12 12 12 12 12 12 12 12 12 12 12 12 12 12 12 12 12 12 12
12 12 12 12 12 12 12 12 12 12 12 12 12 12 12 12 12 12 12 11 11 11 12 12 12 12 12 12 12 12 12 12 12 12 12 12 12 12
11 11 11 11 11 11 11 11 11 11 11 11 11 11 11 12 12 12 12 12 11 11 12 12 12 12 12 12 12 12 12 12 12 12 12 12 12 12
9 9 9 9 10 10 10 10 10 10 10 10 10 10 10 11 11 11 11 11 12 12 12 12 12 12 12 12 12 12 12 12 12 12 12 12 12 11
8 8 8 8 9 9 9 9 9 9 9 9 9 10 10 10 10 11 11 11 11 11 11 11 11 11 11 11 11 11 11 12 12 12 12 12 11 11
7 7 7 8 8 8 8 8 9 9 9 9 9 9 9 10 10 10 10 10 10 11 11 11 11 11 11 11 11 11 11 11 11 11 11 11 11 11
6 6 6 6 6 7 7 8 8 8 8 9 9 9 9 9 9 10 10 10 10 10 10 10 11 11 11 10 10 10 10 10 11 11 11 11 11 11
5 5 5 5 6 6 6 7 7 7 8 8 8 8 8 8 8 9 9 9 9 10 10 10 10 10 10 10 10 10 10 10 10 10 10 10 10 11
5 5 5 5 5 5 5 5 6 6 6 7 7 7 7 8 8 8 8 9 9 9 9 10 10 10 10 9 10 10 10 10 10 10 10 10 10 10
4 4 4 4 4 4 4 5 5 5 6 6 6 6 7 7 7 7 8 8 8 8 9 9 9 9 9 10 10 10 10 10 10 10 10 10 10 10
3 3 4 3 3 4 4 4 4 5 5 5 5 6 6 6 6 7 7 7 8 8 8 9 9 9 10 9 9 10 10 10 10 10 10 10 10 10
3 3 3 3 3 3 3 3 4 4 4 5 5 5 5 6 6 6 6 7 7 7 8 8 9 9 9 9 9 9 10 10 10 10 10 10 10 10
2 2 2 2 2 2 3 3 3 3 4 4 4 5 5 5 5 6 6 6 7 7 7 8 8 8 8 9 9 9 9 9 9 9 10 10 10 10
Wind_Speed
5 5 4 4 2 2 2 2 2 4 4 1 1 2 5 6 9 6 5 9 10 10 10 11 11 11 11 12 13 14 15 16 17 18 19 20 21 21
4 4 4 4 3 2 2 3 3 3 4 3 3 2 3 4 7 5 6 9 13 15 17 16 16 15 14 13 13 14 15 15 16 16 17 19 20 20
7 7 6 6 4 4 3 3 4 4 5 5 4 3 2 3 4 6 9 11 13 18 21 21 20 18 17 16 16 16 16 16 17 17 17 18 18 19
8 8 8 7 8 6 5 5 5 4 5 6 5 4 5 5 6 6 9 12 13 16 19 21 22 22 21 19 19 18 18 18 18 18 18 18 18 19
9 9 9 9 8 7 8 7 6 7 6 6 7 6 6 6 6 7 8 7 13 15 16 21 24 24 23 23 22 21 21 21 21 20 20 19 19 19
10 10 10 10 10 9 9 9 8 7 7 6 7 6 6 7 5 6 6 7 8 11 11 13 19 25 27 27 25 25 24 24 23 22 22 21 20 20
9 9 10 11 13 11 11 9 9 9 8 8 8 7 7 6 6 6 7 6 6 7 6 6 7 10 16 22 26 26 26 26 25 24 23 22 21 21
10 9 10 12 15 16 17 15 13 11 10 9 9 9 9 8 6 6 6 6 6 5 5 7 6 6 6 12 19 26 29 28 27 25 24 23 23 22
8 8 11 13 11 11 14 17 18 19 17 13 13 12 11 8 7 8 7 8 8 5 4 6 6 7 5 14 18 20 25 27 27 26 26 25 24 24
8 8 9 10 12 10 10 12 13 14 16 16 15 16 15 11 10 9 9 9 8 7 8 9 8 8 9 9 17 18 21 24 26 27 27 27 26 25
8 9 9 9 11 12 11 11 12 12 16 19 18 18 21 21 15 10 9 10 11 9 9 10 10 9 9 8 12 20 22 25 27 28 28 27 27 24
6 8 10 8 8 8 8 10 12 12 12 14 13 15 17 17 19 16 13 13 12 10 9 9 9 8 8 8 8 9 14 20 26 27 27 27 25 15
7 7 6 8 11 12 11 11 14 13 12 12 12 12 11 12 13 14 15 15 16 14 9 8 8 8 8 7 7 7 7 6 10 15 23 26 25 18
7 8 8 13 15 16 14 16 18 15 12 12 13 13 12 12 12 13 15 16 17 17 12 9 8 8 8 8 7 6 7 6 7 8 8 17 22 26
8 12 14 17 17 16 18 20 16 13 12 14 14 14 12 12 11 11 12 15 16 18 20 15 14 11 10 10 9 7 7 7 7 7 7 8 8 8
9 13 16 18 18 18 17 15 12 12 13 14 13 13 11 11 12 11 12 11 12 13 14 16 14 15 14 13 10 9 8 7 7 7 8 7 7 6
11 12 12 12 12 11 10 10 10 10 11 11 12 13 13 12 12 11 11 11 12 13 12 12 14 14 15 13 12 11 9 9 8 8 8 8 8 8
11 12 13 12 12 12 12 12 11 11 11 11 11 11 12 12 12 11 11 12 13 13 12 11 11 11 12 13 16 14 11 10 8 8 8 9 9 8
10 11 12 12 11 11 12 13 13 12 11 11 12 12 11 12 12 12 12 12 13 13 12 11 11 12 14 15 12 17 15 12 10 9 9 9 10 8
10 11 11 11 11 12 12 12 13 13 12 12 12 12 12 12 12 12 12 13 12 12 12 11 11 12 14 13 10 9 18 16 11 11 10 8 9 10
11 11 11 11 12 12 12 13 13 13 13 13 13 12 12 11 11 12 12 15 13 12 13 13 12 14 10 9 10 9 9 16 16 11 10 8 8 8
11 11 11 12 12 12 12 12 13 13 13 12 12 11 10 10 12 13 11 11 10 11 12 11 9 8 8 11 12 11 10 9 13 18 16 13 9 9
11 12 12 12 12 11 11 13 14 13 12 11 11 11 11 10 10 10 10 10 10 11 11 10 8 8 9 10 10 10 11 10 8 9 10 15 18 18
Wind_Direction
228 213 229 269 242 256 289 298 299 307 314 313 198 166 161 161 165 194 209 215 220 231 241 246 248 250 250 251 252 252 252 251 250 249 248 246 244 244
242 259 233 268 286 253 239 258 264 270 283 312 303 240 178 212 182 213 248 238 233 239 244 244 242 242 244 247 250 251 251 251 250 249 249 249 249 248
227 229 224 239 270 290 268 240 236 239 256 273 278 285 208 214 214 238 261 255 248 247 244 239 236 237 240 243 247 249 250 250 250 250 250 250 251 250
224 231 229 227 221 237 258 267 258 246 242 262 271 278 262 230 217 219 247 261 260 261 246 235 231 233 236 240 243 245 247 248 249 249 249 249 250 250
222 224 227 230 229 226 227 239 247 251 232 237 247 243 245 243 235 231 240 247 261 269 250 234 231 232 235 239 242 243 245 245 245 246 248 248 249 250
227 226 225 225 227 229 234 234 240 251 256 254 253 247 242 235 223 225 241 237 244 257 259 241 231 233 236 238 240 242 242 242 243 244 245 247 248 250
234 234 236 234 233 233 239 233 232 235 241 245 248 247 243 234 225 222 235 239 238 238 244 244 229 224 231 237 240 242 242 241 240 241 242 244 246 248
238 239 243 242 241 235 237 239 237 239 241 244 248 247 246 240 235 236 238 244 253 243 241 247 240 238 227 230 233 234 236 236 236 236 237 239 242 244
253 253 257 258 253 245 240 240 243 243 240 244 253 255 256 253 250 248 242 243 248 245 262 265 257 255 248 259 257 242 232 230 230 231 233 235 238 241
270 268 265 268 272 272 268 258 247 246 243 243 246 252 254 255 254 254 255 257 254 245 239 255 253 253 257 254 255 247 233 226 225 227 230 234 237 241
279 281 279 274 274 278 276 272 267 259 253 246 237 239 241 245 246 252 251 250 255 247 227 237 242 243 242 242 244 243 235 229 226 227 230 234 238 240
293 289 287 302 319 320 297 286 277 273 274 273 259 250 247 247 239 236 242 247 251 252 235 234 239 237 245 237 233 236 233 233 231 231 233 236 238 235
308 306 308 332 334 322 306 286 278 281 281 274 270 262 251 245 240 235 232 236 242 244 237 231 238 236 236 237 230 227 221 219 223 232 236 238 237 225
307 305 310 327 322 310 298 280 275 277 276 270 266 262 257 252 245 239 233 231 233 239 240 239 243 242 245 247 244 234 231 227 220 218 214 226 231 230
302 309 314 310 305 296 280 274 273 271 267 264 262 260 258 256 254 250 244 239 235 236 238 237 242 247 246 247 247 241 240 236 229 229 227 221 214 208
312 313 308 293 283 274 275 274 265 259 255 259 262 263 263 260 256 252 250 246 245 243 236 232 230 234 241 242 243 244 241 241 235 233 233 234 226 214
312 305 299 296 294 291 288 284 279 274 267 262 263 265 265 264 262 259 256 251 248 246 243 235 231 229 232 235 240 241 242 243 239 236 238 243 239 233
303 297 295 296 297 300 301 299 296 291 287 283 278 273 271 269 267 264 261 256 253 248 244 237 229 229 235 239 230 238 241 243 240 235 234 241 245 239
290 291 295 299 302 304 304 301 299 298 296 290 286 283 280 277 273 270 266 261 257 252 248 241 233 229 235 242 231 216 228 235 234 236 237 238 243 241
303 304 305 307 308 308 307 306 304 302 299 294 286 282 281 277 272 271 268 263 260 257 254 246 237 231 233 240 241 227 213 223 231 235 239 241 243 242
315 315 314 314 313 311 308 306 305 302 300 298 294 286 280 280 278 274 271 267 261 259 256 251 242 232 234 238 247 243 231 216 220 225 226 235 244 247
318 317 316 315 314 312 309 307 305 304 303 300 296 293 289 282 279 278 274 271 267 260 260 258 246 234 231 235 241 245 244 236 227 232 234 228 230 237
321 320 318 315 312 311 311 310 309 307 307 309 308 303 297 292 286 281 278 273 269 266 263 259 253 244 237 233 237 241 244 243 240 234 238 235 233 239
Height
1558 1558 1559 1560 1560 1561 1561 1562 1563 1562 1562 1562 1562 1562 1561 1561 1560 1560 1559 1559 1558 1558 1559 1559 1559 1560 1560 1561 1562 1562 1563 1564 1566 1567 1568 1569 1570 1571
1556 1556 1557 1557 1558 1559 1559 1560 1560 1560 1559 1559 1559 1559 1559 1558 1557 1556 1556 1555 1554 1553 1553 1553 1554 1554 1555 1555 1556 1557 1557 1558 1559 1560 1561 1562 1563 1564
1553 1554 1554 1554 1555 1555 1556 1556 1556 1557 1556 1555 1556 1556 1555 1554 1554 1552 1551 1550 1549 1548 1548 1548 1548 1548 1549 1549 1550 1550 1551 1552 1553 1554 1555 1556 1556 1557
1550 1550 1550 1551 1551 1551 1552 1552 1552 1552 1552 1551 1551 1551 1550 1550 1549 1547 1546 1545 1545 1544 1543 1543 1543 1543 1543 1543 1543 1543 1544 1545 1546 1546 1547 1548 1549 1550
1545 1546 1546 1547 1547 1547 1547 1547 1547 1547 1547 1546 1545 1545 1545 1545 1544 1543 1542 1541 1540 1539 1538 1538 1537 1537 1537 1536 1536 1536 1536 1537 1538 1539 1540 1541 1542 1543
1540 1541 1541 1541 1541 1542 1542 1541 1541 1541 1541 1541 1540 1539 1539 1539 1538 1537 1536 1535 1534 1534 1534 1533 1532 1531 1530 1530 1530 1529 1529 1529 1530 1531 1532 1533 1534 1535
1535 1535 1535 1536 1536 1536 1536 1536 1536 1535 1535 1534 1533 1533 1533 1533 1532 1531 1530 1530 1529 1529 1528 1527 1526 1525 1524 1524 1523 1523 1522 1522 1522 1523 1524 1525 1526 1527
1529 1529 1530 1530 1529 1529 1529 1529 1529 1529 1528 1528 1527 1526 1525 1526 1526 1525 1524 1523 1522 1523 1522 1520 1520 1519 1518 1517 1517 1516 1516 1516 1516 1516 1516 1517 1518 1518
1524 1523 1523 1523 1523 1522 1521 1521 1521 1521 1521 1520 1518 1517 1518 1518 1519 1518 1517 1516 1514 1515 1515 1512 1513 1511 1511 1511 1510 1510 1509 1509 1509 1509 1509 1509 1509 1509
1517 1517 1516 1516 1516 1515 1514 1512 1511 1511 1511 1511 1509 1508 1509 1509 1510 1509 1508 1507 1506 1506 1506 1504 1503 1502 1502 1502 1502 1502 1502 1502 1501 1501 1501 1501 1501 1501
1510 1510 1509 1508 1508 1507 1505 1503 1502 1501 1501 1500 1499 1498 1499 1499 1500 1500 1499 1498 1495 1495 1496 1495 1494 1494 1494 1493 1494 1494 1494 1494 1494 1494 1494 1493 1493 1492
1503 1503 1502 1501 1499 1498 1496 1493 1491 1490 1491 1490 1489 1488 1487 1487 1488 1488 1488 1487 1485 1485 1486 1488 1486 1486 1485 1485 1485 1486 1486 1485 1485 1486 1486 1486 1486 1485
1496 1495 1494 1493 1490 1489 1487 1484 1482 1481 1479 1478 1476 1476 1475 1475 1475 1475 1475 1475 1474 1473 1476 1479 1478 1478 1477 1476 1477 1477 1478 1478 1478 1477 1478 1478 1478 1478
1490 1488 1486 1484 1481 1479 1477 1475 1473 1471 1469 1466 1464 1463 1463 1463 1463 1463 1463 1462 1462 1462 1465 1468 1468 1468 1468 1467 1467 1468 1469 1470 1470 1470 1470 1470 1470 1470
1484 1481 1478 1475 1472 1469 1467 1465 1463 1460 1458 1456 1453 1452 1452 1452 1452 1451 1451 1451 1450 1450 1452 1454 1456 1457 1458 1458 1458 1459 1460 1460 1462 1462 1462 1462 1462 1461
1477 1473 1470 1466 1463 1460 1457 1455 1453 1451 1448 1446 1443 1442 1441 1441 1440 1440 1440 1439 1439 1438 1440 1442 1444 1446 1446 1447 1448 1448 1450 1451 1452 1453 1453 1453 1453 1453
1470 1465 1462 1458 1455 1453 1450 1447 1445 1443 1440 1438 1435 1433 1431 1430 1429 1429 1429 1428 1428 1427 1428 1430 1431 1433 1434 1436 1437 1437 1439 1440 1442 1443 1444 1443 1444 1444
1465 1460 1456 1453 1450 1447 1443 1440 1437 1434 1432 1429 1426 1424 1422 1420 1418 1418 1418 1417 1416 1416 1417 1418 1420 1422 1423 1424 1426 1426 1428 1430 1432 1434 1435 1434 1433 1434
1459 1455 1452 1448 1444 1441 1437 1433 1429 1426 1423 1420 1418 1415 1412 1410 1409 1407 1407 1406 1405 1405 1406 1408 1409 1411 1412 1412 1412 1417 1418 1419 1422 1423 1424 1424 1424 1425
1455 1451 1446 1442 1439 1434 1430 1426 1422 1419 1415 1412 1409 1406 1404 1402 1400 1398 1397 1396 1395 1395 1395 1396 1398 1399 1401 1402 1404 1406 1409 1410 1412 1413 1414 1415 1416 1417
1449 1445 1441 1436 1432 1428 1424 1420 1415 1411 1407 1404 1400 1397 1395 1393 1391 1389 1387 1386 1386 1385 1385 1385 1386 1390 1392 1394 1395 1395 1399 1400 1402 1404 1405 1407 1408 1408
1443 1439 1435 1431 1426 1422 1417 1413 1408 1404 1400 1395 1392 1389 1387 1385 1382 1380 1379 1377 1376 1376 1376 1376 1378 1380 1382 1383 1384 1386 1389 1391 1393 1395 1397 1398 1398 1399
1438 1433 1429 1424 1420 1416 1411 1407 1402 1398 1394 1389 1385 1382 1380 1377 1375 1373 1371 1370 1369 1368 1368 1368 1369 1371 1372 1374 1376 1378 1380 1382 1384 1385 1386 1388 1389 1391